Lid_Strength_Index
11 12 13 13 11 11 11 11 11 10 8 9 11 10 9 7 7 7 7 6 6 5 4 3 3 2 3 2 2 1 1 1 1 1 1 1 2 1 0 0 0 1 1 1
12 13 13 11 11 11 10 12 12 10 9 10 11 11 9 8 8 7 7 6 6 5 4 4 4 3 3 3 2 2 1 1 1 1 1 1 1 1 1 0 -0 1 1 1
12 12 10 11 12 12 13 12 12 12 10 10 11 12 11 8 7 7 7 6 5 5 5 4 5 4 4 3 2 2 1 1 1 1 1 1 0 1 1 1 0 0 1 1
11 11 11 12 13 13 15 10 9 11 13 16 11 17 12 11 10 8 7 7 6 5 4 4 5 5 4 3 2 1 1 1 1 1 1 2 2 3 1 1 1 0 1 -0
11 12 13 13 13 12 13 8 10 11 13 14 13 16 13 11 12 10 8 7 6 5 4 4 5 4 4 3 2 1 1 1 1 1 1 2 2 1 1 1 2 1 1 0
11 11 12 12 12 11 7 9 12 12 13 17 15 15 14 12 10 9 7 7 6 5 5 4 4 4 3 2 2 2 2 2 1 1 1 1 2 2 2 2 2 2 1 0
12 12 13 12 14 12 10 14 16 18 18 19 16 16 13 9 8 8 7 7 6 5 5 4 4 5 4 3 2 2 2 2 1 1 1 1 1 1 2 2 2 2 2 1
15 15 12 12 13 13 11 12 16 18 18 16 15 17 12 8 7 6 6 6 6 5 5 4 4 4 4 3 2 2 2 2 2 1 1 1 1 1 2 2 2 2 1 1
16 15 11 11 12 12 15 15 14 15 17 17 15 13 9 8 8 7 7 6 6 6 5 5 4 4 4 4 3 2 2 2 2 2 1 1 1 2 3 2 2 2 1 1
13 15 13 11 11 12 14 12 14 15 19 20 16 16 14 11 9 8 8 7 6 6 5 5 4 4 4 3 3 2 2 2 2 1 1 1 1 2 3 2 2 1 0 1
15 14 13 12 13 13 13 14 14 14 14 16 17 14 10 10 8 8 8 7 6 7 6 5 4 3 3 3 3 2 2 2 2 2 1 1 2 2 3 2 2 1 1 1
13 15 15 13 12 12 13 14 14 16 17 15 15 13 9 8 8 7 7 7 6 6 6 6 5 4 3 3 3 3 2 2 2 1 1 1 2 2 2 2 1 1 1 1
13 16 16 14 14 14 14 14 15 15 15 16 16 13 9 8 7 7 7 6 6 5 5 5 5 5 4 4 3 3 2 2 2 2 2 2 3 3 2 2 1 1 1 1
10 16 15 15 14 14 14 13 13 15 16 16 13 12 10 8 8 7 7 6 6 6 6 5 5 5 5 4 3 3 3 2 2 2 2 2 3 2 2 2 2 2 2 2
13 15 14 15 13 11 12 12 13 15 15 15 14 13 11 10 9 8 7 6 6 6 5 5 5 5 4 4 3 3 3 2 2 2 2 2 3 2 2 2 2 2 2 2
11 13 12 14 11 11 13 12 11 12 12 12 12 11 9 8 7 7 7 5 6 6 5 5 5 4 4 4 4 3 3 2 2 2 2 3 3 2 2 2 2 2 3 5
11 13 14 15 12 12 13 13 12 12 11 12 14 10 8 9 8 7 7 6 6 5 5 5 5 5 4 4 3 3 3 2 2 2 3 3 3 3 2 2 3 3 5 7
11 13 15 15 15 17 12 9 9 11 10 9 10 9 8 8 7 8 6 6 6 6 5 5 4 4 4 3 3 2 2 2 2 3 3 3 3 2 3 3 3 3 6 7
10 12 14 15 16 14 12 10 11 12 12 9 9 8 8 7 7 7 5 6 6 6 4 4 4 3 3 3 3 3 3 3 3 3 3 3 3 3 3 3 4 5 5 7
10 11 12 14 16 16 12 9 7 8 14 8 8 8 8 8 11 9 7 6 5 4 4 4 3 3 3 3 2 3 3 3 3 3 3 3 3 3 3 4 5 5 5 6
13 13 14 15 15 13 9 8 7 15 13 7 7 7 8 9 7 6 7 5 4 4 4 3 3 3 3 3 2 3 3 3 3 3 3 2 2 2 3 4 5 6 6 5
14 14 15 15 16 16 7 8 11 9 7 7 7 6 7 6 6 6 5 5 5 5 4 3 4 4 3 2 3 3 3 3 3 3 3 2 2 2 3 4 5 5 5 6
14 11 13 12 12 9 7 7 6 6 7 6 7 6 6 6 6 5 5 5 5 4 4 3 4 4 3 3 3 3 4 3 3 3 2 2 3 4 4 4 6 6 6 6
11 9 12 11 9 9 7 6 5 5 6 5 5 5 5 6 5 5 5 5 5 4 4 4 4 4 5 5 5 5 4 2 2 2 2 3 4 6 5 5 4 5 6 6
9 9 11 11 9 8 7 6 6 5 5 5 4 4 5 5 5 5 5 5 4 4 4 4 4 4 5 6 6 4 3 2 3 2 4 4 6 6 5 5 5 4 3 5
8 10 11 11 8 9 8 6 4 5 5 4 5 4 4 4 5 5 5 4 4 4 4 4 4 3 4 6 5 4 3 2 2 3 4 4 5 5 5 7 8 10 7 9